Showing default

PRSC-E03, 68835

Orbit data source: Space-Track

PRSC-E03, 68835 is a payload satellite owned by SUPARCO (PK) in LEO that was launched on Sat, 25 Apr 2026 UTC via a CHANG ZHENG 6 launch vehicle from the Taiyaun Space Center, China (TSC). Payload-class satellites include a variety of spacecraft equipped with specific instruments for various scientific and technological missions. These include communications satellites like Starlink; space stations such as the ISS; scientific satellites like the Hubble; Earth observation satellites from companies like Planet Labs, Umbra, and HawkEye 360; GPS; miniature CubeSats for education and research; and military/defense satellites.

Loading next visibility...
Identifier
68835, 2026-092A
Orbit
LEO
Country
Flag of PKPK / PAKI
Related business
Manufacturer
SUPARCO
Mission
Operational Civil Imaging
Bus & Motor
PRSC-EO, Unknown motor
Mass
~500 kg wet, ~500 kg dry
Launch date (UTC)
2026-04-25 (5 months ago)
Launch vehicle
CHANG ZHENG 6
Launch site
Taiyaun Space Center, China (TSC)
Object type
Payload
Rocket body
Debris
Shape & HBR
Box + 2 Pan, 4.0 m
Radar Cross Section
6.755 m², Large (>1 m²)

Expand to show TLE details & history
Last TLE update: 16 hours ago

TLE from 16 hours ago
0 PRSC-E03
1 68835U 26092A   26255.59411935  .00001748  00000-0  12163-3 0  9992
2 68835  38.0015 294.1039 0004229 340.9961  19.0643 15.07042486 21144
Epoch: 2026-09-12T14:15Z
TLE epoch observation values (Epoch: 2026-09-12T14:15:31.911Z)
Latitude
-0°
Longitude
88.62005°
Altitude
541.708 km
Speed
7.595 km/s
True Right ascension
19h 36m 24s
True Declination
0° 00' 00"
Sunlit
Object was in full shadow at epoch
Visualization orbit readout
Latitude
Unknown
Longitude
Unknown
Altitude
Unknown
Speed
Unknown
Apparent Right ascension
Unknown
Apparent Declination
Unknown
Sunlit
N/A
Visualization observer readout
Local Sidereal Time
22:28:26
Azimuth
Unknown
Elevation
Unknown
Doppler factor
Unknown
Orbital elements
Apogee altitude
550.922 km
Perigee altitude
545.063 km
Semi-major axis
6,926.129 km
Eccentricity
0.00042
Inclination
38.0015°
RAAN
294.1039°
Arg. of periapsis
340.9961°
True anomaly
19.08014°
Mean anomaly
19.0643°
Eccentric anomaly
19.07222°
Mean motion
3.76537 °/min
Orbital period
95.61 mins
BSTAR
0.00012163
Loading maneuver chart data...
Computing Atmospheric mass density...
Loading historical data...
Loading historical data...
Loading historical data...
Loading historical data...
Loading historical data...
Loading historical data...
Loading historical data...
Other satellites on launch #92 in the year 2026 (2026-04-25 UTC)

Documentation

Showing up to 5 results
|